Вернуться в каталог

FENGYUN 1C DEB

АктивенSSO
NORAD 32457·DEBRIS·🇨🇳 China

Запущен May 10, 1999 с Taiyuan Satellite Launch Center

Loading…

Ближайшие Пролёты (ближайшие 24 часа)

TLE

СвежийSource: Space-Track

Эпоха: Sep 11, 2026, 08:05 UTC

1 32457U 99025DBV 26254.33746209  .00000347  00000-0  51853-3 0  9998
2 32457 100.0980 294.2760 0416960  41.5065 321.6944 13.29709394575731

Отслеживайте FENGYUN 1C DEB в реальном времени с AllMySat

Download on the App Store